UAE746 OBBI-OTHH

Flight info

Callsign UAE746
Flight time 0h 33m
Altitude 17000
Route DCT BHR DCT HAYYA HAYYA2V
Aircraft A359/H-SDE2E3GHIJ3J4J5LM1ORWXY/LB1D1

Departure

Time 2026-02-18 08:36
Airport Bahrain International Airport (OBBI)

Arrival

Time 2026-02-18 09:10
Airport Hamad International Airport (OTHH)
Time Latitude Longitude Altitude Speed Heading
2026-02-18 08:16 26.26687 50.63293 25 ft 0 kts 213°
2026-02-18 08:26 26.26689 50.63294 25 ft 2 kts 213°
2026-02-18 08:26 26.26702 50.63304 31 ft 2 kts 214°
2026-02-18 08:26 26.26709 50.63309 31 ft 0 kts 215°
2026-02-18 08:27 26.26720 50.63318 28 ft 2 kts 217°
2026-02-18 08:27 26.26733 50.63330 30 ft 2 kts 220°
2026-02-18 08:27 26.26745 50.63342 30 ft 2 kts 228°
2026-02-18 08:27 26.26755 50.63357 29 ft 2 kts 260°
2026-02-18 08:28 26.26753 50.63373 29 ft 1 kts 301°
2026-02-18 08:28 26.26751 50.63375 29 ft 0 kts 302°
2026-02-18 08:31 26.26755 50.63368 29 ft 7 kts 302°
2026-02-18 08:31 26.26818 50.63260 26 ft 25 kts 302°
2026-02-18 08:32 26.26942 50.63044 29 ft 40 kts 302°
2026-02-18 08:32 26.27107 50.62743 30 ft 46 kts 302°
2026-02-18 08:32 26.27227 50.62547 31 ft 15 kts 321°
2026-02-18 08:32 26.27307 50.62541 33 ft 11 kts
2026-02-18 08:33 26.27375 50.62514 34 ft 8 kts 312°
2026-02-18 08:33 26.27461 50.62358 31 ft 18 kts 310°
2026-02-18 08:33 26.27549 50.62223 30 ft 24 kts 303°
2026-02-18 08:34 26.27648 50.62049 31 ft 29 kts 303°
2026-02-18 08:34 26.27721 50.61945 33 ft 8 kts 338°
2026-02-18 08:34 26.27746 50.61963 33 ft 6 kts 49°
2026-02-18 08:34 26.27746 50.61973 33 ft 0 kts 81°
2026-02-18 08:35 26.27747 50.61979 38 ft 2 kts 80°
2026-02-18 08:35 26.27753 50.62015 28 ft 7 kts 80°
2026-02-18 08:35 26.27764 50.62085 32 ft 11 kts 80°
2026-02-18 08:36 26.27740 50.62259 32 ft 38 kts 120°
2026-02-18 08:36 26.27485 50.62672 32 ft 103 kts 123°
2026-02-18 08:36 26.26962 50.63566 95 ft 166 kts 122°
2026-02-18 08:36 26.26293 50.64691 730 ft 179 kts 122°
2026-02-18 08:37 26.25594 50.65850 1603 ft 181 kts 125°
2026-02-18 08:37 26.23733 50.68134 2403 ft 217 kts 135°
2026-02-18 08:37 26.22614 50.69367 2726 ft 237 kts 135°
2026-02-18 08:38 26.21397 50.70709 3158 ft 253 kts 135°
2026-02-18 08:38 26.20137 50.72105 3887 ft 257 kts 135°
2026-02-18 08:38 26.18883 50.73500 4649 ft 259 kts 135°
2026-02-18 08:38 26.17589 50.74941 5435 ft 260 kts 135°
2026-02-18 08:39 26.16315 50.76359 6216 ft 260 kts 135°
2026-02-18 08:39 26.15046 50.77771 6926 ft 262 kts 135°
2026-02-18 08:39 26.13740 50.79223 7495 ft 269 kts 134°
2026-02-18 08:39 26.12400 50.80713 8065 ft 276 kts 134°
2026-02-18 08:40 26.11029 50.82238 8647 ft 281 kts 133°
2026-02-18 08:40 26.09634 50.83790 9242 ft 287 kts 133°
2026-02-18 08:40 26.08205 50.85379 9831 ft 293 kts 132°
2026-02-18 08:40 26.06746 50.87002 10279 ft 303 kts 132°
2026-02-18 08:41 26.05213 50.88710 10515 ft 319 kts 132°
2026-02-18 08:41 26.01933 50.92352 10997 ft 347 kts 132°
2026-02-18 08:41 26.00190 50.94281 11248 ft 358 kts 132°
2026-02-18 08:42 25.98401 50.96251 11606 ft 364 kts 133°
2026-02-18 08:42 25.96586 50.98247 12019 ft 369 kts 133°
2026-02-18 08:42 25.94751 51.00266 12456 ft 372 kts 132°
2026-02-18 08:42 25.90749 51.04687 13368 ft 380 kts 132°
2026-02-18 08:43 25.83141 51.13096 14970 ft 390 kts 132°
2026-02-18 08:43 25.76057 51.20912 16102 ft 395 kts 132°
2026-02-18 08:43 25.73470 51.23762 16073 ft 395 kts 132°
2026-02-18 08:43 25.72130 51.25239 16009 ft 411 kts 132°
2026-02-18 08:44 25.70064 51.27519 15964 ft 424 kts 132°
2026-02-18 08:44 25.67995 51.29795 15751 ft 425 kts 132°
2026-02-18 08:44 25.65896 51.32101 15509 ft 425 kts 132°
2026-02-18 08:44 25.63794 51.34410 15278 ft 423 kts 132°
2026-02-18 08:45 25.61700 51.36709 15050 ft 422 kts 132°
2026-02-18 08:45 25.57544 51.41270 13727 ft 419 kts 132°
2026-02-18 08:45 25.55482 51.43534 12890 ft 416 kts 132°
2026-02-18 08:46 25.53443 51.45771 12116 ft 411 kts 132°
2026-02-18 08:46 25.51421 51.47988 11354 ft 406 kts 133°
2026-02-18 08:46 25.49429 51.50171 10716 ft 398 kts 133°
2026-02-18 08:46 25.47503 51.52277 10485 ft 380 kts 133°
2026-02-18 08:47 25.45667 51.54281 10328 ft 361 kts 133°
2026-02-18 08:47 25.43922 51.56186 10213 ft 343 kts 133°
2026-02-18 08:47 25.42287 51.57974 10095 ft 326 kts 132°
2026-02-18 08:47 25.40708 51.59698 9978 ft 311 kts 132°
2026-02-18 08:48 25.39203 51.61348 9836 ft 298 kts 131°
2026-02-18 08:48 25.37759 51.62943 9624 ft 293 kts 131°
2026-02-18 08:48 25.36323 51.64532 9286 ft 291 kts 132°
2026-02-18 08:48 25.34889 51.66108 8926 ft 289 kts 133°
2026-02-18 08:49 25.33473 51.67660 8572 ft 285 kts 133°
2026-02-18 08:49 25.30461 51.70433 7877 ft 281 kts 151°
2026-02-18 08:49 25.28672 51.71302 7568 ft 279 kts 156°
2026-02-18 08:50 25.26881 51.72079 7278 ft 276 kts 157°
2026-02-18 08:50 25.25097 51.72846 6988 ft 273 kts 157°
2026-02-18 08:50 25.23363 51.73597 6702 ft 270 kts 157°
2026-02-18 08:50 25.21626 51.74358 6405 ft 266 kts 157°
2026-02-18 08:51 25.19935 51.75096 6131 ft 265 kts 157°
2026-02-18 08:51 25.18690 51.75640 5923 ft 264 kts 157°
2026-02-18 08:51 25.16984 51.76390 5643 ft 264 kts 157°
2026-02-18 08:51 25.15281 51.77134 5349 ft 263 kts 157°
2026-02-18 08:52 25.13578 51.77879 5091 ft 263 kts 158°
2026-02-18 08:52 25.11879 51.78611 4807 ft 260 kts 160°
2026-02-18 08:52 25.10155 51.78884 4576 ft 252 kts 185°
2026-02-18 08:52 25.08572 51.78114 4357 ft 247 kts 220°
2026-02-18 08:53 25.07689 51.76546 4070 ft 248 kts 253°
2026-02-18 08:53 25.08046 51.72845 3653 ft 237 kts 282°
2026-02-18 08:53 25.08529 51.71162 3441 ft 223 kts 301°
2026-02-18 08:54 25.09526 51.69937 3193 ft 208 kts 321°
2026-02-18 08:54 25.10717 51.69192 3104 ft 190 kts 338°
2026-02-18 08:54 25.11935 51.68686 2888 ft 185 kts 340°
2026-02-18 08:54 25.13116 51.68174 2635 ft 179 kts 339°
2026-02-18 08:55 25.14261 51.67660 2395 ft 176 kts 339°
2026-02-18 08:55 25.15379 51.67161 2151 ft 169 kts 339°
2026-02-18 08:55 25.16436 51.66695 1940 ft 159 kts 339°
2026-02-18 08:55 25.17453 51.66247 1746 ft 154 kts 339°
2026-02-18 08:56 25.18418 51.65822 1534 ft 144 kts 339°
2026-02-18 08:56 25.19312 51.65427 1363 ft 137 kts 339°
2026-02-18 08:56 25.20194 51.65038 1178 ft 136 kts 340°
2026-02-18 08:56 25.21070 51.64652 1013 ft 135 kts 340°
2026-02-18 08:57 25.21939 51.64267 831 ft 134 kts 340°
2026-02-18 08:57 25.23659 51.63510 465 ft 132 kts 340°
2026-02-18 08:57 25.24512 51.63137 307 ft 132 kts 339°
2026-02-18 08:58 25.25360 51.62754 108 ft 131 kts 341°
2026-02-18 08:58 25.26189 51.62392 35 ft 121 kts 340°
2026-02-18 08:58 25.26917 51.62070 34 ft 107 kts 341°
2026-02-18 08:58 25.27703 51.61727 433 ft 147 kts 340°
2026-02-18 08:59 25.28703 51.61285 1272 ft 156 kts 340°
2026-02-18 08:59 25.29788 51.60816 1648 ft 181 kts 340°
2026-02-18 08:59 25.31070 51.60337 1878 ft 207 kts 352°
2026-02-18 08:59 25.32513 51.60684 2172 ft 224 kts 34°
2026-02-18 09:00 25.33499 51.61999 2439 ft 225 kts 70°
2026-02-18 09:00 25.33569 51.63686 2491 ft 223 kts 107°
2026-02-18 09:00 25.32702 51.65089 2500 ft 224 kts 136°
2026-02-18 09:00 25.31719 51.66433 2495 ft 231 kts 121°
2026-02-18 09:01 25.30961 51.68064 2487 ft 244 kts 116°
2026-02-18 09:01 25.29430 51.71420 2488 ft 247 kts 118°
2026-02-18 09:01 25.28616 51.73089 2490 ft 247 kts 119°
2026-02-18 09:02 25.27784 51.74750 2487 ft 247 kts 119°
2026-02-18 09:02 25.26887 51.76360 2485 ft 247 kts 126°
2026-02-18 09:02 25.25752 51.77785 2489 ft 247 kts 133°
2026-02-18 09:02 25.24535 51.79127 2479 ft 247 kts 135°
2026-02-18 09:03 25.23289 51.80440 2483 ft 247 kts 139°
2026-02-18 09:03 25.21903 51.81425 2478 ft 224 kts 156°
2026-02-18 09:03 25.20493 51.81797 2486 ft 196 kts 176°
2026-02-18 09:03 25.19181 51.81598 2488 ft 189 kts 197°
2026-02-18 09:04 25.18077 51.80820 2485 ft 190 kts 220°
2026-02-18 09:04 25.17209 51.79709 2482 ft 192 kts 237°
2026-02-18 09:04 25.16630 51.78377 2484 ft 193 kts 247°
2026-02-18 09:04 25.16181 51.76999 2483 ft 193 kts 250°
2026-02-18 09:05 25.15764 51.75574 2483 ft 193 kts 251°
2026-02-18 09:05 25.15012 51.72868 2531 ft 165 kts 251°
2026-02-18 09:05 25.14698 51.71711 2509 ft 156 kts 252°
2026-02-18 09:06 25.14390 51.70567 2500 ft 154 kts 252°
2026-02-18 09:06 25.14105 51.69486 2490 ft 142 kts 252°
2026-02-18 09:06 25.14066 51.68425 2469 ft 143 kts 289°
2026-02-18 09:06 25.14667 51.67564 2391 ft 145 kts 317°
2026-02-18 09:07 25.15529 51.67019 2165 ft 141 kts 339°
2026-02-18 09:07 25.16448 51.66666 1970 ft 139 kts 343°
2026-02-18 09:07 25.17350 51.66307 1784 ft 138 kts 341°
2026-02-18 09:07 25.18238 51.65920 1592 ft 137 kts 340°
2026-02-18 09:08 25.19119 51.65520 1425 ft 137 kts 339°
2026-02-18 09:08 25.20001 51.65125 1228 ft 136 kts 340°
2026-02-18 09:08 25.20874 51.64739 1052 ft 135 kts 340°
2026-02-18 09:08 25.21742 51.64355 864 ft 134 kts 340°
2026-02-18 09:09 25.22603 51.63975 691 ft 132 kts 340°
2026-02-18 09:09 25.24311 51.63221 299 ft 132 kts 339°
2026-02-18 09:09 25.25149 51.62849 110 ft 130 kts 341°
2026-02-18 09:10 25.25982 51.62483 29 ft 122 kts 338°
2026-02-18 09:10 25.26591 51.62218 28 ft 55 kts 338°
2026-02-18 09:10 25.26705 51.62168 28 ft 5 kts 338°
2026-02-18 09:10 25.26844 51.62100 30 ft 36 kts 330°
2026-02-18 09:11 25.27061 51.61863 27 ft 44 kts 311°
2026-02-18 09:11 25.27142 51.61669 28 ft 16 kts 332°
2026-02-18 09:11 25.27249 51.61621 28 ft 18 kts 339°
2026-02-18 09:11 25.27375 51.61565 28 ft 21 kts 337°
2026-02-18 09:12 25.27413 51.61448 28 ft 17 kts 249°
2026-02-18 09:12 25.27365 51.61322 28 ft 19 kts 249°
2026-02-18 09:12 25.27315 51.61179 28 ft 21 kts 240°
2026-02-18 09:12 25.27189 51.61094 28 ft 22 kts 201°
2026-02-18 09:13 25.27088 51.60984 28 ft 22 kts 252°
2026-02-18 09:13 25.27022 51.60951 28 ft 1 kts 156°